Weather History for Jefferson City, MO

Change the Weather History Date:

Wednesday, January 9, 2013

  Actual Average Record
Temperature  
Mean Temperature 46 °F -  
Max Temperature 59 °F 36 °F 72 °F (1963)
Min Temperature 32 °F 16 °F -7 °F (1979)
Degree Days  
Heating Degree Days 20    
Moisture  
Dew Point 32 °F    
Average Humidity 73    
Maximum Humidity 96    
Minimum Humidity 30    
Precipitation  
Precipitation 0.00 in - - ()
Sea Level Pressure  
Sea Level Pressure 30.35 in    
Wind  
Wind Speed 2 mph (NE)    
Max Wind Speed 8 mph    
Max Gust Speed 18 mph    
Visibility 6 miles    
Events Fog    
Averages and records for this station are not official NWS values.
T = Trace of Precipitation, MM = Missing Value Source: NWS Daily Summary

Daily Weather History Graph

Daily Weather History Graph

Search for Another Location

Airport:

Trip Planner

Search our weather history database for the weather conditions in past years. The results will help you decide how hot, cold, wet, or windy it might be!

Date:

Astronomy

Jan. 09, 2013 Rise Set
Actual Time 7:26 AM CST 5:05 PM CST
Civil Twilight 6:57 AM CST 5:35 PM CST
Nautical Twilight 6:24 AM CST 6:08 PM CST
Astronomical Twilight 5:52 AM CST 6:40 PM CST
Moon 5:05 AM CST (1/9) 3:07 PM CST (1/9)
Length of Visible Light 10h 38m
Length of Day
9h 39m
Waning Crescent, 6% of the Moon is Illuminated
Jan 9
Waning Crescent
Jan 11
New
Jan 18
First Quarter
Jan 26
Full
Feb 3
Last Quarter

Hourly Weather History & Observations

Time (CST) Temp. Windchill Dew Point Humidity Pressure Visibility Wind Dir Wind Speed Gust Speed Precip Events Conditions
12:53 AM 48.0 °F - 37.0 °F 66% 30.19 in 10.0 mi Calm Calm - N/A   Partly Cloudy
1:53 AM 46.9 °F - 37.9 °F 71% 30.20 in 10.0 mi Calm Calm - N/A   Clear
2:53 AM 46.9 °F - 41.0 °F 80% 30.22 in 10.0 mi WNW 3.5 mph - N/A   Clear
3:53 AM 44.1 °F 41.5 °F 39.0 °F 82% 30.25 in 10.0 mi NNW 4.6 mph - N/A   Clear
4:53 AM 39.9 °F 37.8 °F 37.0 °F 89% 30.26 in 8.0 mi WNW 3.5 mph - N/A   Clear
5:53 AM 37.0 °F - 35.1 °F 93% 30.28 in 3.0 mi Calm Calm - N/A   Clear
6:30 AM 35.6 °F - 33.8 °F 93% 30.33 in 2.0 mi Calm Calm - N/A   Clear
6:41 AM 35.6 °F - 32.0 °F 87% 30.33 in 3.0 mi Calm Calm - N/A   Clear
6:44 AM 33.8 °F - 32.0 °F 93% 30.33 in 1.8 mi Calm Calm - N/A   Clear
6:47 AM 33.8 °F - 32.0 °F 93% 30.34 in 0.8 mi Calm Calm - N/A   Mist
6:53 AM 33.1 °F - 30.9 °F 92% 30.32 in 0.2 mi Calm Calm - N/A Fog Fog
7:08 AM 33.8 °F - 30.2 °F 87% 30.35 in 0.5 mi Calm Calm - N/A Fog Fog
7:25 AM 33.8 °F - 30.2 °F 87% 30.36 in 0.2 mi Calm Calm - N/A Fog Fog
7:48 AM 33.8 °F - 30.2 °F 87% 30.37 in 0.2 mi Calm Calm - N/A Fog Fog
7:53 AM 33.1 °F - 30.0 °F 89% 30.35 in 0.2 mi Calm Calm - N/A Fog Fog
8:18 AM 32.0 °F - 30.2 °F 93% 30.39 in 0.5 mi Calm Calm - N/A Fog Fog
8:22 AM 33.8 °F - 32.0 °F 93% 30.39 in 0.2 mi Calm Calm - N/A Fog Fog
8:53 AM 33.1 °F - 32.0 °F 96% 30.38 in 0.5 mi Calm Calm - N/A Fog Fog
8:55 AM 33.8 °F - 32.0 °F 93% 30.40 in 1.0 mi Calm Calm - N/A   Clear
9:10 AM 35.6 °F - 33.8 °F 93% 30.41 in 6.0 mi Calm Calm - N/A   Clear
9:53 AM 39.0 °F - 37.0 °F 93% 30.39 in 6.0 mi Calm Calm - N/A   Clear
10:53 AM 45.0 °F - 37.0 °F 74% 30.40 in 10.0 mi Calm Calm - N/A   Clear
11:53 AM 50.0 °F - 36.0 °F 59% 30.38 in 10.0 mi Calm Calm - N/A   Clear
12:53 PM 55.0 °F - 37.0 °F 51% 30.35 in 10.0 mi Variable 3.5 mph - N/A   Clear
1:53 PM 59.0 °F - 32.0 °F 36% 30.36 in 10.0 mi ENE 6.9 mph - N/A   Clear
2:53 PM 57.9 °F - 26.1 °F 30% 30.38 in 10.0 mi North 8.1 mph 18.4 mph N/A   Clear
3:53 PM 57.0 °F - 27.0 °F 32% 30.39 in 10.0 mi NE 5.8 mph - N/A   Clear
4:53 PM 55.0 °F - 27.0 °F 34% 30.38 in 10.0 mi NNE 4.6 mph - N/A   Clear
5:53 PM 52.0 °F - 28.9 °F 41% 30.40 in 10.0 mi NE 4.6 mph - N/A   Clear
6:53 PM 45.0 °F - 28.9 °F 53% 30.42 in 10.0 mi Calm Calm - N/A   Clear
7:53 PM 50.0 °F - 30.0 °F 46% 30.41 in 10.0 mi ENE 6.9 mph - N/A   Clear
8:53 PM 39.9 °F 36.7 °F 30.0 °F 68% 30.43 in 10.0 mi ESE 4.6 mph - N/A   Clear
9:53 PM 41.0 °F 38.0 °F 28.9 °F 62% 30.42 in 10.0 mi Variable 4.6 mph - N/A   Clear
10:53 PM 44.1 °F 41.5 °F 28.0 °F 53% 30.40 in 10.0 mi East 4.6 mph - N/A   Clear
11:53 PM 39.0 °F 33.4 °F 28.0 °F 65% 30.39 in 10.0 mi SE 8.1 mph - N/A   Clear